Flag for U.S.A. Weather past 2 weeks in Corpus Christi, Texas, U.S.A.

Now
78 °F

Passing clouds.


Feels Like: 81 °F
Forecast: 80 / 94 °F
Wind: 8 mph from South

Location: Corpus Christi International Airport

Current Time: Jul 26, 2014 at 8:19:54 AM

Latest Report: Jul 26, 2014 at 7:51 AM


Visibility: 9 mi

Pressure: 30.00 "Hg

Humidity: 93%

Dew point: 76 °F

Location of Corpus ChristiLocation

Historic Weather in Corpus Christi — Graph

°F

Corpus Christi temperature yesterday

Maximum temperature yesterday: 95 °F (at 12:51 PM)
Minimum temperature yesterday: 77 °F (at 3:51 PM)
Average temperature yesterday: 83 °F

Past Weeks' High & Low Weather Summary

 TemperatureHumidityPressure
High97 °F (Jul 14, 2:51 PM)97% (Jul 12, 2:51 AM)30.14 "Hg (Jul 12, 2:51 AM)
Low70 °F (Jul 12, 4:51 AM)40% (Jul 14, 2:51 PM)29.78 "Hg (Jul 17, 5:51 PM)
Average84 °F74%29.97 "Hg
* Reported Jul 11 6:56 AM — Jul 26 6:51 AM, Corpus Christi, Weather by CustomWeather, © 2014

Note: Actual official high and low records may vary slightly from our data, if they occured in-between our weather recording intervals... More about our weather records

Advertising

Corpus Christi weather history for previous 24 hours

 ConditionsComfort  
Time TempWeatherWind HumidityBarometerVisibility
6:51 AM
Jul 26
75 °FPassing clouds.7 mph94%29.98 "Hg7 mi
5:51 AM76 °FPassing clouds.No wind94%29.97 "Hg10 mi
4:51 AM78 °FPassing clouds.7 mph93%29.96 "Hg10 mi
3:51 AM79 °FPassing clouds.10 mph90%29.96 "Hg10 mi
2:51 AM79 °FPassing clouds.10 mph90%29.97 "Hg10 mi
1:51 AM80 °FPassing clouds.13 mph87%29.98 "Hg10 mi
12:51 AM80 °FPassing clouds.13 mph87%29.99 "Hg10 mi
11:51 PM
Jul 25
81 °FPassing clouds.14 mph88%29.99 "Hg10 mi
10:51 PM82 °FPassing clouds.14 mph85%29.98 "Hg10 mi
9:51 PM82 °FPassing clouds.15 mph85%29.96 "Hg10 mi
8:51 PM83 °FPassing clouds.16 mph79%29.94 "Hg10 mi
7:51 PM84 °FPassing clouds.17 mph74%29.94 "Hg10 mi
6:51 PM86 °FPassing clouds.17 mph70%29.93 "Hg10 mi
5:51 PM82 °FScattered clouds.10 mph77%29.93 "Hg10 mi
5:00 PM78 °FLight rain. Broken clouds.8 mph82%29.95 "Hg10 mi
3:51 PM77 °FThunderstorms. Broken clouds.28 mph71%29.98 "Hg9 mi
2:51 PM93 °FThundershowers. Broken clouds.18 mph52%29.96 "Hg10 mi
1:51 PM95 °FThundershowers. Broken clouds.22 mph52%29.97 "Hg10 mi
12:51 PM95 °FBroken clouds.10 mph47%29.98 "Hg10 mi
11:51 AM93 °FScattered clouds.10 mph50%30.00 "Hg10 mi
10:51 AM92 °FPassing clouds.13 mph51%30.01 "Hg10 mi
9:51 AM87 °FPassing clouds.10 mph65%30.02 "Hg10 mi
8:51 AM84 °FPassing clouds.9 mph77%30.01 "Hg10 mi
Weather by CustomWeather, © 2014

See weather overviewHow to use our weather pages